User: anonymous   Login
Location: Albany
(35.0000°S, 118.0000°E)
Time: 14:19:14
(UTC-05:00)
Language:

ADEOS Rocket - Orbit

View from above orbital plane
View from above orbital plane
View from above satellite
View from above satellite

Ground track
Ground track

The orbit data is extracted from the following two-line orbital elements,

1 24279U 96046C   17018.86174104 +.00000004 +00000-0 +52660-4 0  9994
2 24279 098.7335 341.4088 0299484 309.5193 075.9686 13.47073949003860
Epoch (UTC): 18 January 2017 20:40:54
Eccentricity: 0.0299484
inclination: 98.7335°
perigee height: 859 km
apogee height: 1306 km
right ascension of ascending node: 341.4088°
argument of perigee: 309.5193°
revolutions per day: 13.47073949
mean anomaly at epoch: 75.9686°
orbit number at epoch: 386

The dashed part of the orbit path shows where the satellite is in the earth's shadow,  

DLR